Presure
158 151 152 152 146 138 141 130 107 168 184 181 173 165 180 173 193 200 193 216 224 239 226 229 228 238 232 240 221 221 235 226 237 228 229 229 224 230 219 218 230 243 224 230 210
155 165 151 124 119 120 142 100 163 182 183 176 175 192 182 192 182 231 199 233 232 227 227 225 222 241 224 226 243 243 241 241 241 235 227 228 229 228 235 217 223 237 243 241 226
167 159 103 153 104 126 159 179 180 187 182 172 176 178 179 190 236 219 253 237 223 218 253 249 243 239 235 274 259 269 258 250 248 242 228 234 237 236 229 179 220 235 239 246 254
119 128 124 117 172 140 182 181 176 182 179 179 190 182 192 191 215 210 235 220 256 248 236 243 236 235 255 262 245 252 248 244 244 251 254 251 247 251 249 243 234 241 247 255 220
150 182 120 113 194 176 182 176 181 181 180 188 173 176 200 207 233 223 204 243 245 247 241 234 230 241 258 255 245 247 246 246 253 243 241 246 252 246 231 263 223 256 259 254 263
174 166 117 141 185 176 167 168 176 184 175 178 171 184 190 234 202 232 218 237 235 245 243 237 247 233 231 249 246 247 243 244 250 250 264 238 255 240 247 265 265 265 254 257 256
173 167 173 180 186 176 180 164 174 178 170 185 186 209 199 232 221 210 226 219 227 233 231 233 254 248 247 246 248 245 244 253 258 248 247 250 241 231 237 233 234 252 264 260 260
173 183 180 181 177 173 167 168 179 173 168 174 203 193 202 207 225 226 235 234 228 222 225 249 247 246 244 256 261 247 260 237 263 288 347 282 262 259 238 254 251 243 249 258 259
175 181 175 166 168 167 170 160 170 165 166 171 183 190 215 217 216 228 237 232 225 220 228 242 240 248 253 266 257 241 369 350 338 339 351 350 350 341 337 312 276 263 262 268 275
178 178 174 163 163 163 170 169 166 191 181 186 186 192 224 220 227 222 211 226 223 221 240 241 238 236 260 253 244 355 338 326 330 324 320 319 326 327 335 341 343 347 325 278 254
163 165 174 179 169 157 178 171 165 190 207 179 198 223 222 227 235 226 227 222 218 221 235 242 235 245 266 239 347 334 330 322 309 305 300 299 298 307 311 322 328 337 345 362 318
174 179 161 181 178 169 200 188 181 172 192 217 194 228 219 219 224 222 223 228 226 216 233 242 235 273 265 269 335 328 322 304 294 290 287 301 315 382 301 304 311 317 326 336 350
170 163 171 173 164 152 153 179 188 196 167 197 199 227 215 212 218 221 215 218 219 223 231 235 249 264 254 344 323 318 306 290 284 383 368 352 352 348 352 366 390 396 403 342 332
160 170 186 166 159 170 146 167 156 197 192 198 220 213 218 215 227 216 224 213 220 225 239 233 271 261 243 337 320 311 292 280 372 353 334 348 346 348 344 357 361 394 407 408 407
164 180 166 199 162 148 168 164 184 203 197 214 219 213 219 219 213 226 213 229 221 229 234 235 253 235 284 329 314 299 279 367 343 334 328 337 316 311 325 326 322 329 343 355 374
163 185 168 137 161 178 186 163 169 186 177 216 214 215 220 209 219 224 215 228 223 226 233 218 246 260 277 325 313 290 315 356 331 323 250 313 309 288 313 317 312 323 324 332 348
161 185 159 178 171 153 163 165 172 179 208 222 148 218 217 208 217 199 220 218 222 221 227 225 268 258 275 317 307 286 368 335 327 330 310 295 296 308 306 294 310 312 317 325 324
160 204 191 150 203 175 196 195 207 179 213 223 218 212 205 208 214 214 211 221 227 225 231 226 272 270 281 319 311 278 371 334 335 327 302 305 294 295 305 289 291 306 297 332 338
190 181 166 194 160 182 199 168 174 206 218 214 209 215 213 212 216 215 205 223 227 226 225 227 270 271 289 322 303 280 358 335 319 303 299 295 299 305 284 297 276 298 293 291 316
175 154 173 192 193 197 207 205 211 191 212 210 210 206 210 213 215 213 214 225 223 216 222 233 261 267 279 314 306 281 306 332 317 312 304 296 306 293 286 286 280 289 282 282 297
176 186 203 189 193 182 209 207 213 213 208 205 212 216 211 217 214 210 218 225 216 209 148 225 246 263 266 318 299 287 286 343 329 310 305 295 284 294 272 279 283 270 269 273 282
174 200 186 205 185 196 216 186 213 202 212 200 211 208 206 220 218 218 220 216 219 224 226 218 228 258 267 324 306 288 277 352 346 323 321 293 292 282 278 263 287 269 275 274 271
200 196 193 180 205 217 226 214 209 215 210 210 202 212 208 218 213 216 223 209 229 225 223 217 233 255 267 324 303 289 272 363 339 322 316 296 289 286 286 266 285 268 266 267 268
190 199 204 225 205 219 213 212 208 201 212 200 209 207 206 219 208 221 216 210 221 220 227 217 252 260 265 333 304 291 268 318 341 328 319 308 282 282 277 256 255 273 264 254 266
200 210 202 206 219 218 221 208 190 205 208 209 207 202 209 217 222 216 209 211 215 225 225 219 242 261 268 309 303 292 275 277 325 336 317 311 294 309 283 263 267 284 254 267 255
213 216 223 219 200 216 214 205 213 197 205 209 203 205 215 213 203 207 204 214 220 234 222 224 240 259 267 295 312 289 283 271 342 344 325 306 294 286 321 265 265 286 245 251 268
205 192 201 210 210 189 214 208 199 197 201 209 207 208 211 220 223 199 221 218 218 226 235 226 247 255 260 274 324 289 287 263 287 390 333 318 301 291 313 269 268 256 278 254 223
Wind_Speed
50 53 53 53 56 49 53 55 44 60 56 58 60 61 62 65 62 62 64 58 57 52 54 55 57 57 56 58 55 57 56 57 59 57 57 59 62 57 65 72 72 71 79 80 86
54 52 55 45 49 46 48 47 63 56 56 58 61 59 64 64 67 58 63 58 56 55 56 56 57 56 58 59 63 62 62 64 63 61 60 62 63 63 61 72 76 75 73 72 85
53 54 27 58 22 59 56 54 55 55 58 61 63 65 66 68 62 63 57 57 59 60 54 55 55 55 57 54 58 58 63 67 67 67 65 70 70 66 67 63 79 77 77 76 72
57 58 54 34 49 44 51 53 57 58 59 62 65 66 68 71 62 62 58 62 54 55 57 57 56 57 51 50 54 56 61 64 67 69 69 72 76 74 72 74 77 77 78 78 85
46 51 38 45 51 54 54 56 58 60 62 63 67 69 69 71 66 66 66 62 57 56 57 59 61 58 56 52 53 55 58 64 68 74 75 73 71 74 70 79 70 77 78 80 81
55 59 38 52 54 56 51 60 61 64 66 69 71 75 76 70 72 67 69 66 63 59 60 65 65 64 65 64 65 65 66 70 74 74 78 75 74 74 77 80 77 78 82 83 85
56 59 59 60 57 59 60 63 64 66 68 76 76 73 76 72 72 72 70 72 70 68 70 71 69 66 65 66 66 70 73 76 79 75 72 72 72 81 83 86 79 75 81 86 88
58 58 60 62 60 60 62 64 68 70 73 76 75 81 76 77 74 72 69 66 69 71 73 73 71 71 73 73 76 74 78 72 86 88 71 87 88 93 91 88 84 83 82 83 88
58 58 61 62 62 63 65 67 71 71 74 79 78 82 85 80 76 71 65 67 70 76 78 78 77 79 79 75 78 72 60 57 53 60 55 56 54 69 80 95 105 92 86 86 91
59 59 61 64 65 66 68 71 73 75 84 80 85 85 80 76 73 74 75 72 75 78 82 81 82 83 79 80 73 55 53 50 49 48 46 47 48 56 60 65 71 76 94 102 93
61 64 64 65 67 68 74 77 77 83 77 88 83 85 78 76 68 71 71 75 78 80 87 85 85 88 84 76 60 54 50 42 43 41 37 44 47 51 53 56 60 64 69 73 105
62 64 69 67 71 70 71 77 81 83 80 93 83 81 75 75 74 75 76 76 79 83 91 88 88 85 88 86 56 54 43 40 41 41 40 38 38 24 50 52 55 60 64 69 74
66 68 71 72 73 69 74 78 79 77 87 82 85 77 72 75 74 70 77 77 80 84 91 90 89 87 84 61 54 53 42 42 38 13 12 14 13 18 20 20 21 26 34 60 70
71 73 70 72 72 76 77 84 79 83 87 84 85 79 72 71 67 70 73 80 81 88 92 93 86 90 88 57 51 46 46 42 11 3 11 15 17 5 7 15 16 19 30 35 41
73 76 74 71 75 75 82 85 83 89 87 90 82 75 74 70 74 72 77 82 85 90 92 95 93 91 93 56 51 45 43 11 7 5 9 8 2 5 11 8 4 1 5 7 13
73 71 77 69 78 76 78 83 90 85 84 89 78 73 71 68 73 75 78 83 88 90 90 84 94 89 89 57 48 44 31 9 9 7 15 12 6 18 14 11 2 3 3 10 12
73 81 75 81 82 81 72 80 80 84 87 84 61 72 71 71 75 78 81 82 85 86 88 87 89 87 84 56 52 42 16 15 8 3 16 9 10 12 15 5 18 14 14 13 8
76 80 76 74 88 75 95 84 98 83 85 81 77 70 70 72 77 77 78 88 88 88 89 90 85 85 84 52 46 41 11 9 3 7 14 14 11 11 18 11 11 23 6 25 20
79 79 83 79 84 86 93 91 83 93 82 80 75 72 70 77 77 79 77 88 88 89 89 91 87 85 87 52 47 42 19 7 2 10 13 17 11 24 10 18 10 20 28 18 27
86 75 77 77 91 90 94 107 89 82 82 77 73 70 72 77 79 79 80 88 85 82 89 92 87 84 84 52 47 41 40 9 7 12 21 18 21 11 19 18 18 30 24 21 25
86 81 98 85 90 85 97 97 83 80 76 73 77 78 77 84 80 78 83 87 81 71 40 87 87 82 80 50 46 43 40 11 8 13 24 17 10 24 11 18 23 26 25 22 26
78 109 79 116 73 103 94 75 83 76 77 75 77 76 77 86 83 83 83 82 83 85 85 82 86 79 82 51 43 41 38 12 8 15 27 17 15 17 15 16 26 35 35 30 26
115 107 97 70 115 97 83 81 78 77 77 79 75 83 80 87 76 79 84 77 82 82 83 79 85 76 80 51 45 40 37 11 9 10 21 20 20 25 27 18 31 38 36 35 36
95 117 109 96 99 87 89 80 76 77 82 75 84 80 80 91 74 80 76 75 82 81 83 79 82 75 76 53 43 39 36 28 12 11 13 23 17 30 27 16 22 45 40 35 42
123 121 119 120 99 97 83 82 68 81 85 85 86 78 88 93 88 75 70 75 78 81 80 77 82 72 74 63 44 39 35 36 20 13 12 14 20 22 42 28 31 44 34 46 44
125 113 103 97 93 99 92 87 90 76 90 93 82 84 93 88 66 68 68 76 78 83 78 78 78 69 71 64 44 40 34 33 20 13 13 14 18 19 31 36 40 45 34 44 49
117 89 100 104 100 88 102 93 76 74 88 98 96 94 95 101 92 62 81 75 75 78 77 76 74 65 66 68 46 38 34 30 34 11 14 15 19 23 26 45 48 31 48 48 32
Wind_Direction
298 298 300 303 302 304 303 304 288 312 313 313 312 309 308 308 308 307 306 309 307 305 303 302 298 293 292 287 286 282 276 270 267 264 261 255 252 247 241 244 243 237 233 232 227
299 301 302 301 294 296 303 284 310 312 311 311 309 311 308 309 309 321 310 313 312 310 308 304 300 294 293 289 284 280 276 272 268 264 261 258 254 248 245 243 245 243 234 233 229
298 299 299 304 280 301 307 311 312 314 312 308 310 308 308 311 329 318 319 315 314 311 307 302 300 298 295 284 279 277 274 271 268 264 261 262 260 255 250 246 241 245 239 232 231
287 291 297 303 309 305 315 313 310 314 311 311 315 310 315 313 322 316 322 318 319 313 310 308 303 300 297 290 283 280 274 272 269 267 264 262 261 257 254 253 245 243 243 240 230
305 306 293 290 316 308 313 311 315 315 313 315 308 309 322 323 330 324 315 325 319 315 310 305 304 307 315 303 293 286 279 275 270 263 263 259 254 253 250 254 245 246 241 238 237
304 305 292 298 312 310 312 311 314 318 311 311 308 313 314 332 318 329 323 325 321 317 314 311 316 309 309 308 300 294 287 280 276 272 270 262 261 257 254 253 250 244 240 237 233
303 303 306 309 314 313 316 308 311 314 308 317 316 327 317 332 328 322 326 323 323 320 318 317 321 316 310 305 297 293 290 289 285 278 268 263 259 252 248 247 241 247 244 238 235
303 308 307 311 313 312 310 309 316 312 308 313 325 316 322 327 331 328 325 322 320 319 320 326 322 318 313 309 302 301 296 289 286 277 273 267 263 260 250 252 244 238 240 243 237
306 309 309 306 307 308 310 306 310 306 309 312 315 315 330 329 326 327 325 324 322 320 323 327 326 322 319 313 310 307 299 294 286 281 278 273 263 257 254 252 251 248 243 244 244
306 307 305 303 305 305 309 308 306 318 314 315 313 320 330 328 329 326 323 323 322 323 332 330 326 323 321 320 315 308 303 299 290 282 283 274 267 260 258 257 255 252 246 244 231
298 300 306 308 305 303 311 309 307 316 331 312 325 332 330 328 328 326 326 324 322 326 332 330 326 327 324 324 320 312 309 302 292 287 279 273 269 267 261 256 252 249 247 244 240
302 305 300 306 307 306 317 311 312 310 321 335 320 333 328 329 329 327 327 331 330 327 332 333 328 329 326 331 320 317 316 304 295 291 284 278 274 281 263 258 252 248 245 242 239
299 298 302 305 303 303 305 313 315 323 308 325 322 330 328 329 327 327 324 328 329 332 333 332 332 330 331 333 326 322 319 309 301 314 310 280 287 281 280 288 298 278 264 245 239
296 300 304 301 303 305 303 306 302 325 325 326 331 329 328 328 327 325 328 323 331 334 335 333 335 331 336 333 330 326 321 315 323 325 294 324 332 31 7 359 4 316 277 267 257
296 298 300 312 303 302 303 304 313 330 326 329 328 329 328 328 326 333 326 337 333 336 337 336 337 336 340 336 333 332 325 336 326 289 296 67 69 281 87 100 287 56 3 328 320
297 305 301 302 303 307 308 301 301 316 309 330 326 330 330 326 330 336 328 338 336 337 337 337 337 338 341 335 336 335 330 333 323 331 268 129 142 269 100 99 37 16 332 343 356
296 294 298 298 302 302 310 304 316 305 323 327 322 329 329 327 331 319 336 336 337 336 335 337 339 338 344 337 340 340 345 339 340 21 152 238 220 146 114 169 51 35 15 337 322
297 314 307 300 321 303 322 323 326 320 326 326 327 331 326 328 332 330 329 336 337 337 336 336 342 342 344 340 341 339 351 336 325 155 177 182 216 168 120 144 87 46 331 4 11
309 303 297 315 298 307 321 299 301 324 324 326 326 328 329 330 332 331 324 336 336 337 336 337 342 344 347 346 342 343 349 328 270 228 231 204 213 155 194 117 182 62 86 76 58
298 296 296 313 310 319 322 324 320 313 323 322 326 326 330 332 331 330 331 337 334 336 336 337 341 347 349 345 344 343 353 329 268 228 209 211 175 187 154 136 126 110 102 98 82
303 305 315 313 315 301 321 321 322 320 320 322 327 329 330 331 329 327 333 336 333 334 314 338 340 345 349 347 342 343 351 322 266 236 218 226 234 168 222 156 126 148 139 129 115
286 315 309 318 305 323 319 314 320 315 320 321 326 326 327 329 329 330 334 333 332 334 335 337 339 343 349 345 345 341 347 312 266 230 218 233 216 199 198 236 136 151 141 138 136
309 311 312 300 318 315 314 314 315 317 319 323 322 326 328 328 326 329 332 329 331 331 333 336 336 342 349 348 343 341 344 309 287 260 225 231 207 194 177 220 146 159 153 149 140
309 312 312 308 312 312 314 319 315 318 320 320 321 323 322 325 322 327 329 328 329 329 332 334 334 342 347 350 344 343 341 344 304 255 245 225 218 202 206 221 204 163 161 173 151
308 309 310 311 309 311 312 317 306 317 319 318 319 317 320 322 322 323 324 327 326 326 329 331 332 343 345 348 344 342 340 347 333 255 241 234 226 210 190 200 190 172 176 164 174
306 306 307 309 313 314 314 313 315 312 316 317 314 314 317 318 315 320 320 323 324 326 325 328 329 342 345 347 347 340 338 342 337 262 243 223 219 213 209 201 193 176 201 190 176
306 301 311 311 309 301 309 311 308 304 310 311 309 311 310 310 311 314 317 319 320 324 324 326 330 338 344 345 346 337 337 337 350 272 247 230 219 216 209 200 194 210 182 192 203